Regional Weather Roundup
Issued by NWS Little Rock, AR

Home | Current Version | Previous Version | Text Only | Print | Product List | Glossary On
Versions: 1 2 3 4 5 6 7 8 9 10 11 12 13 14 15 16 17 18 19 20 21 22 23 24 25 26 27 28 29 30 31 32 33 34 35 36 37 38 39 40 41 42 43 44 45 46 47 48 49 50
000
ASUS44 KLZK 201405
RWRLZK

WEATHER ROUNDUP FOR ARKANSAS
NATIONAL WEATHER SERVICE LITTLE ROCK AR
900 AM CDT WED AUG 20 2014

NOTE: "FAIR" INDICATES FEW OR NO CLOUDS BELOW 12,000 FEET WITH NO
SIGNIFICANT WEATHER AND/OR OBSTRUCTIONS TO VISIBILITY.

ARZ001-003-010-029-201500-
NORTHWEST ARKANSAS

CITY           SKY/WX    TMP DP  RH WIND       PRES   REMARKS
FAYETTEVILLE   SUNNY     79  71  76 S10       30.00R
FORT SMITH     SUNNY     79  73  82 NE5       29.97R
HARRISON       SUNNY     81  70  69 CALM      30.01R
BENTONVILLE    SUNNY     79  70  73 SW10G16   30.00R
ROGERS         SUNNY     80  68  66 S13G20    30.01R
SILOAM SPGS    SUNNY     79  66  65 S12       30.00R
HIGHFILL       SUNNY     78  69  73 S7        29.99R
SPRINGDALE     SUNNY     79  70  73 S14       30.02R
$$

ARZ004-005-016-201500-
NORTH CENTRAL ARKANSAS

CITY           SKY/WX    TMP DP  RH WIND       PRES   REMARKS
BATESVILLE     SUNNY     82  75  78 W6        29.99R HX  89
FLIPPIN        SUNNY     81  68  65 SW6       29.99R
MTN HOME       SUNNY     80  70  71 S7        29.99R
$$

ARZ040-041-201500-
WEST CENTRAL ARKANSAS

CITY           SKY/WX    TMP DP  RH WIND       PRES   REMARKS
MENA           SUNNY     81  73  78 CALM      30.03R HX  85
MOUNT IDA      SUNNY     79  71  76 CALM      30.00R
$$

ARZ009-017-025-026-028-201500-
NORTHEAST ARKANSAS

CITY           SKY/WX    TMP DP  RH WIND       PRES   REMARKS
CORNING        FAIR      82  75  78 SW7       29.97R HX  89
JONESBORO      SUNNY     82  75  79 SW7       29.98R HX  89
NEWPORT        SUNNY     85  76  74 SW9       30.00R HX  94
WALNUT RIDGE   SUNNY     82  73  74 SW10      29.97R HX  88
BLYTHEVILLE    SUNNY     82  78  88 SW9       29.99R HX  91
$$

ARZ022-023-033-042-044-201500-
CENTRAL ARKANSAS

CITY           SKY/WX    TMP DP  RH WIND       PRES   REMARKS
LITTLE ROCK    MOSUNNY   81  70  69 W7        30.01R
N LITTLE ROCK  MOSUNNY   80  73  79 SW6       30.01R
JACKSONVILLE   SUNNY     82  72  73 SW9       30.01R HX  86
SEARCY           N/A     82  75  79 CALM        N/A  HX  88
HOT SPRINGS    SUNNY     78  70  76 W5        30.03R
RUSSELLVILLE   SUNNY     81  72  74 CALM      29.99R HX  85
CLINTON        FAIR      79  75  89 CALM      30.00S
$$

ARZ036-201500-
EAST ARKANSAS

CITY           SKY/WX    TMP DP  RH WIND       PRES   REMARKS
WEST MEMPHIS   SUNNY     81  76  84 VRB7      29.99R HX  87
$$

ARZ050-053-066-070-073-201500-
SOUTHWEST ARKANSAS

CITY           SKY/WX    TMP DP  RH WIND       PRES   REMARKS
ARKADELPHIA    FAIR      79  72  79 SW5       30.03R
CAMDEN         SUNNY     77  68  73 CALM      30.04R
TEXARKANA      SUNNY     77  72  84 SW7       30.03R
EL DORADO      SUNNY     78  72  81 S6        30.04R
DE QUEEN       SUNNY     76  71  85 S3        30.01R
$$

ARZ056-057-069-201500-
SOUTHEAST ARKANSAS

CITY           SKY/WX    TMP DP  RH WIND       PRES   REMARKS
PINE BLUFF     SUNNY     79  69  71 SW7       30.03R
STUTTGART      SUNNY     81  72  74 SW8       30.02R
MONTICELLO     SUNNY     80  70  71 SW5       30.04R

$$




USA.gov is the U.S. government's official web portal to all federal, state and local government web resources and services.